Crestview, FL

4:40 AM CDT on August 22, 2017 (GMT -0500)
Sikes

Weather History for KCEW - November, 2013

Change the Weather History Date:

Sunday, November 3, 2013

  Actual Average Record
Temperature  
Mean Temperature 57 °F -  
Max Temperature 71 °F 76 °F 89 °F (2016)
Min Temperature 42 °F 49 °F 28 °F (1999)
Degree Days  
Heating Degree Days 8    
Growing Degree Days 7 (Base 50)    
Moisture  
Dew Point 42 °F    
Average Humidity 65    
Maximum Humidity 93    
Minimum Humidity 30    
Precipitation  
Precipitation 0.00 in - - ()
Sea Level Pressure  
Sea Level Pressure 30.18 in    
Wind  
Wind Speed 5 mph (North)    
Max Wind Speed 10 mph    
Max Gust Speed 21 mph    
Visibility 10 miles    
Events      
Averages and records for this station are not official NWS values.
T = Trace of Precipitation, MM = Missing Value Source: NWS Daily Summary

Daily Weather History Graph

Daily Weather History Graph

Search for Another Location

Airport or City:

Trip Planner

Search our weather history database for the weather conditions in past years. The results will help you decide how hot, cold, wet, or windy it might be!

Date:

Astronomy

Nov. 03, 2013 Rise Set
Actual Time 6:02 AM CST 4:56 PM CST
Civil Twilight 5:37 AM CST 5:21 PM CST
Nautical Twilight 5:09 AM CST 5:49 PM CST
Astronomical Twilight 4:40 AM CST 6:17 PM CST
Moon 6:05 AM CST (11/3) 5:12 PM CST (11/3)
Length of Visible Light 11h 43m
Length of Day
10h 53m
New Moon, 0% of the Moon is Illuminated
Nov 3
New Moon
Nov 9
First Quarter
Nov 17
Full
Nov 25
Last Quarter
Dec 2
New

Hourly Weather History & Observations

Time (CST) Temp. Dew Point Humidity Pressure Visibility Wind Dir Wind Speed Gust Speed Precip Events Conditions
12:53 AM 54.0 °F 42.1 °F 64% 30.11 in 10.0 mi North 5.8 mph - N/A   Clear
1:53 AM 52.0 °F 42.1 °F 69% 30.13 in 10.0 mi NNW 6.9 mph - N/A   Clear
1:53 AM 51.1 °F 42.1 °F 71% 30.14 in 10.0 mi NNW 5.8 mph - N/A   Clear
2:53 AM 48.9 °F 42.1 °F 77% 30.14 in 10.0 mi NNW 5.8 mph - N/A   Clear
3:53 AM 48.0 °F 42.1 °F 80% 30.15 in 10.0 mi NNW 5.8 mph - N/A   Clear
4:53 AM 48.0 °F 41.0 °F 77% 30.16 in 10.0 mi NNW 5.8 mph - N/A   Clear
5:53 AM 46.0 °F 41.0 °F 83% 30.17 in 10.0 mi Calm Calm - N/A   Clear
6:53 AM 48.0 °F 42.1 °F 80% 30.19 in 10.0 mi NNE 4.6 mph - N/A   Clear
7:53 AM 54.0 °F 43.0 °F 66% 30.21 in 10.0 mi NE 6.9 mph - N/A   Clear
8:53 AM 60.1 °F 43.0 °F 53% 30.22 in 10.0 mi NNE 8.1 mph - N/A   Clear
9:53 AM 64.0 °F 42.1 °F 45% 30.23 in 10.0 mi NNE 10.4 mph 16.1 mph N/A   Clear
10:53 AM 66.9 °F 37.9 °F 34% 30.22 in 10.0 mi NE 9.2 mph 20.7 mph N/A   Clear
11:53 AM 69.1 °F 37.9 °F 32% 30.19 in 10.0 mi North 10.4 mph 16.1 mph N/A   Clear
12:53 PM 70.0 °F 37.9 °F 31% 30.17 in 10.0 mi ENE 4.6 mph - N/A   Clear
1:53 PM 70.0 °F 37.9 °F 31% 30.16 in 10.0 mi NNE 8.1 mph - N/A   Clear
2:53 PM 70.0 °F 37.0 °F 30% 30.15 in 10.0 mi North 6.9 mph - N/A   Clear
3:53 PM 68.0 °F 39.0 °F 35% 30.16 in 10.0 mi Variable 4.6 mph - N/A   Clear
4:53 PM 59.0 °F 46.9 °F 64% 30.17 in 10.0 mi Calm Calm - N/A   Clear
5:53 PM 51.1 °F 46.9 °F 86% 30.19 in 10.0 mi Calm Calm - N/A   Clear
6:53 PM 48.9 °F 46.0 °F 90% 30.20 in 10.0 mi Calm Calm - N/A   Clear
7:53 PM 46.9 °F 44.1 °F 90% 30.21 in 10.0 mi Calm Calm - N/A   Clear
8:53 PM 45.0 °F 43.0 °F 93% 30.22 in 8.0 mi Calm Calm - N/A   Clear
9:53 PM 44.1 °F 42.1 °F 93% 30.25 in 8.0 mi Calm Calm - N/A   Clear
10:53 PM 42.1 °F 39.9 °F 92% 30.25 in 7.0 mi Calm Calm - N/A   Clear